Find STARLINK-37357

NORAD ID: 799500956 Int'l Des: 2026-132K Constellation: starlink operational

Current View

Loading 3D Globe...

About STARLINK-37357

STARLINK-37357 (NORAD 799500956) is a starlink constellation satellite launched Jun 8, 2026

About STARLINK-37357

Description loading...

Upcoming Passes

Passes for default location (London). Set your location on the main map for personalized predictions.

Altitude History

Loading altitude history...

Two-Line Element Set

1 99999C 2026132K 26163.67895832 .03047400 00000-0 317800-3 0 1630
2 99999 53.1632 346.5421 0010162 280.9205 264.6317 16.08141294 14
Epoch: Jun 12, 2026 • Age: 6 hours